DW6448 Weather Reports


time (UTC)temp
F
wind
direction
speed
knots
gust
knots
rain 1hr
in
rain 24hr
in
rain mn
in
humidity
%
barometer
mb
20260509043515 51 178 0.0 1.7 0.00 0.17 0.00 94 1007.4
20260509043035 51 185 0.0 1.7 0.00 0.17 0.00 94 1007.4
20260509042512 51 195 0.0 1.7 0.00 0.17 0.00 94 1007.5
20260509042012 51 186 0.0 1.7 0.00 0.17 0.00 94 1007.4
20260509041515 51 186 0.0 1.7 0.00 0.17 0.00 94 1007.5
20260509041013 51 175 0.0 2.6 0.00 0.17 0.00 94 1007.4
20260509040511 51 175 0.0 2.6 0.00 0.17 0.00 94 1007.4
20260509040011 51 173 0.0 0.9 0.00 0.17 0.00 93 1007.4
20260509035512 52 176 0.0 1.7 0.00 0.17 0.17 93 1007.5
20260509035009 52 162 0.0 1.7 0.00 0.17 0.17 93 1007.5
20260509034509 52 162 0.0 1.7 0.00 0.17 0.17 93 1007.6
20260509034008 52 163 0.0 1.7 0.00 0.17 0.17 93 1007.7
20260509033513 52 168 0.0 1.7 0.00 0.17 0.17 93 1007.8
20260509033009 52 175 0.0 0.9 0.00 0.17 0.17 93 1007.8
20260509032509 52 172 0.0 0.9 0.00 0.17 0.17 93 1007.8
20260509032009 52 172 0.0 0.9 0.00 0.17 0.17 93 1007.8
20260509031511 52 172 0.0 0.9 0.00 0.17 0.17 92 1007.9
20260509031009 52 172 0.0 0.9 0.00 0.17 0.17 92 1008.0
20260509030508 53 172 0.0 1.7 0.00 0.17 0.17 92 1008.0
20260509030008 53 176 0.0 0.9 0.00 0.17 0.17 92 1008.0
20260509025508 53 177 0.0 0.9 0.00 0.18 0.17 92 1008.0
20260509025011 53 171 0.0 0.9 0.00 0.18 0.17 92 1007.9
20260509024510 53 172 0.0 0.9 0.00 0.18 0.17 92 1008.0
20260509024008 53 178 0.0 0.9 0.00 0.18 0.17 91 1007.9
20260509023507 54 183 0.0 1.7 0.00 0.18 0.17 92 1007.9
20260509023006 54 184 0.0 1.7 0.00 0.18 0.17 92 1008.0
20260509022508 54 184 0.0 4.3 0.00 0.18 0.17 91 1007.9
20260509022007 54 199 1.7 5.2 0.00 0.18 0.17 91 1007.9
20260509021507 54 206 1.7 6.1 0.00 0.18 0.17 92 1007.9
20260509021007 54 203 2.6 6.1 0.00 0.18 0.17 91 1007.9
20260509020506 54 205 3.5 6.1 0.00 0.18 0.17 91 1007.9
20260509020006 54 207 1.7 6.1 0.00 0.18 0.17 91 1007.8
20260509015507 55 203 2.6 6.1 0.00 0.18 0.17 91 1007.9
20260509015006 55 198 1.7 5.2 0.00 0.18 0.17 91 1007.9
20260509014517 55 194 2.6 7.0 0.00 0.18 0.17 90 1007.9
20260509014006 55 202 3.5 7.8 0.00 0.18 0.17 90 1007.8
20260509013509 55 204 3.5 8.7 0.00 0.18 0.17 90 1007.8
20260509013006 55 207 5.2 8.7 0.00 0.18 0.17 90 1007.7
20260509012505 55 186 4.3 9.6 0.00 0.18 0.17 90 1007.7
20260509012005 55 230 5.2 8.7 0.00 0.18 0.17 90 1007.7
20260509011506 55 201 5.2 11.3 0.00 0.18 0.17 90 1007.7
20260509011008 56 205 3.5 8.7 0.00 0.18 0.17 89 1007.7
20260509010504 56 210 4.3 10.4 0.00 0.18 0.17 90 1007.7
20260509010005 56 203 5.2 10.4 0.00 0.18 0.17 90 1007.6
20260509005504 56 197 5.2 7.8 0.00 0.18 0.17 89 1007.6
20260509005003 56 213 5.2 7.8 0.00 0.18 0.17 89 1007.5
20260509004503 56 209 5.2 7.8 0.00 0.18 0.17 89 1007.6
20260509004003 56 197 5.2 9.6 0.00 0.18 0.17 89 1007.6
20260509003504 56 209 5.2 11.3 0.00 0.18 0.17 89 1007.5
20260509003003 57 207 6.1 11.3 0.00 0.18 0.17 89 1007.5
20260509002503 57 203 5.2 11.3 0.00 0.18 0.17 89 1007.6
20260509002003 57 202 6.1 9.6 0.00 0.18 0.17 89 1007.7
20260509001502 57 214 6.1 10.4 0.00 0.18 0.17 88 1007.7
20260509001003 57 187 6.1 10.4 0.00 0.18 0.17 88 1007.7
20260509000600 57 201 3.5 7.8 0.00 0.18 0.17 88 1007.7
20260509000104 57 211 4.3 8.7 0.00 0.18 0.17 88 1007.8
20260508235600 58 211 4.3 8.7 0.00 0.18 0.17 88 1007.8
20260508235100 58 210 4.3 7.0 0.00 0.18 0.17 88 1007.8
20260508234604 58 216 3.5 7.0 0.00 0.18 0.17 88 1007.9
20260508234059 58 209 5.2 7.0 0.00 0.18 0.17 88 1007.9
20260508233600 58 213 4.3 8.7 0.00 0.18 0.17 87 1007.8
20260508233115 58 202 5.2 9.6 0.00 0.18 0.17 87 1007.8
20260508232558 58 203 3.5 9.6 0.00 0.18 0.17 87 1007.8
20260508232058 58 205 6.1 10.4 0.00 0.18 0.17 86 1007.9
20260508231603 58 211 5.2 11.3 0.00 0.18 0.17 86 1007.8
20260508231058 58 208 5.2 10.4 0.00 0.18 0.17 86 1007.8
20260508230559 58 174 5.2 10.4 0.00 0.18 0.17 86 1007.8
20260508230057 58 216 6.1 11.3 0.00 0.18 0.17 86 1007.9
20260508225557 58 201 7.8 11.3 0.00 0.18 0.17 87 1007.8
20260508225059 58 209 6.1 12.2 0.00 0.18 0.17 87 1007.8
20260508224558 58 211 4.3 12.2 0.00 0.18 0.17 86 1007.9
20260508224056 58 207 6.1 13.9 0.00 0.18 0.17 86 1007.9
20260508223557 58 215 7.8 13.9 0.00 0.18 0.17 87 1008.0
20260508223056 58 214 5.2 8.7 0.00 0.18 0.17 87 1008.0
20260508222557 58 209 5.2 13.0 0.00 0.18 0.17 88 1008.1
20260508222058 58 231 7.8 13.0 0.00 0.18 0.17 87 1008.2
20260508221559 58 202 7.0 16.5 0.00 0.18 0.17 88 1008.2
20260508221056 58 216 8.7 16.5 0.00 0.18 0.17 88 1008.2
20260508220558 58 201 7.0 13.9 0.00 0.18 0.17 89 1008.0
20260508220056 58 214 9.6 13.9 0.00 0.18 0.17 89 1008.1
20260508215556 58 205 7.8 13.9 0.00 0.18 0.17 89 1007.9
20260508215055 58 208 7.8 14.8 0.00 0.18 0.17 89 1007.9
20260508214555 58 191 8.7 14.8 0.00 0.18 0.17 89 1007.9
20260508214054 58 210 8.7 13.9 0.00 0.18 0.17 89 1007.9
20260508213554 58 209 9.6 15.6 0.00 0.18 0.17 89 1007.9
20260508213057 58 170 7.8 15.6 0.00 0.18 0.17 89 1008.0
20260508212553 58 177 7.0 14.8 0.00 0.18 0.17 89 1008.1
20260508212053 58 203 6.1 14.8 0.00 0.18 0.17 89 1008.1
20260508211553 58 205 6.1 13.0 0.01 0.18 0.17 89 1008.1
20260508211051 58 204 6.1 9.6 0.01 0.18 0.17 89 1008.2
20260508210552 57 210 4.3 9.6 0.01 0.18 0.17 89 1008.3
20260508210051 57 233 4.3 9.6 0.01 0.18 0.17 88 1008.4
20260508205549 57 223 4.3 7.0 0.01 0.18 0.17 88 1008.5
20260508205048 57 210 5.2 9.6 0.01 0.18 0.17 88 1008.5
20260508204548 57 218 6.1 13.0 0.02 0.18 0.17 88 1008.4
20260508204050 57 220 8.7 13.0 0.02 0.18 0.17 88 1008.5
20260508203548 57 183 7.0 14.8 0.02 0.18 0.17 89 1008.4
20260508203048 57 191 8.7 14.8 0.03 0.18 0.17 89 1008.5
20260508202552 57 195 8.7 14.8 0.03 0.18 0.17 90 1008.4
20260508202047 57 208 4.3 12.2 0.03 0.18 0.17 89 1008.6
20260508201546 56 204 7.8 12.2 0.02 0.17 0.16 88 1008.7
20260508201045 56 209 7.0 12.2 0.02 0.17 0.16 88 1008.8
20260508200544 56 206 6.1 12.2 0.02 0.17 0.16 87 1009.0
20260508200043 56 222 8.7 12.2 0.02 0.17 0.16 86 1009.2
20260508195543 56 222 7.8 11.3 0.02 0.17 0.16 85 1009.3
20260508195044 57 236 5.2 9.6 0.01 0.16 0.15 84 1009.3
20260508194556 57 234 6.1 13.0 0.01 0.16 0.15 82 1009.4
20260508194042 57 219 7.0 15.6 0.01 0.16 0.15 80 1009.4
20260508193544 58 256 8.7 15.6 0.01 0.16 0.15 78 1009.4
20260508193042 58 241 9.6 15.6 0.00 0.15 0.14 76 1009.4
20260508192543 59 250 7.0 19.1 0.00 0.15 0.14 75 1009.4
20260508192045 59 224 9.6 19.1 0.00 0.15 0.14 74 1009.4
20260508191547 60 249 11.3 19.1 0.00 0.15 0.14 72 1009.3
20260508191042 61 216 10.4 16.5 0.00 0.15 0.14 72 1009.3
20260508190541 61 235 8.7 14.8 0.00 0.15 0.14 73 1009.3
20260508190100 61 239 7.8 14.8 0.00 0.15 0.14 72 1009.3
20260508185540 61 208 8.7 15.6 0.00 0.15 0.14 70 1009.3
20260508185040 61 251 9.6 15.6 0.00 0.15 0.14 69 1009.4
20260508184542 61 211 6.1 11.3 0.00 0.15 0.14 69 1009.5
20260508184039 61 224 6.1 11.3 0.00 0.15 0.14 68 1009.4
20260508183538 61 267 7.8 14.8 0.00 0.15 0.14 68 1009.5
20260508183042 61 239 7.8 14.8 0.00 0.15 0.14 67 1009.5
20260508182538 61 252 7.0 13.9 0.00 0.15 0.14 68 1009.6
20260508182037 61 210 6.1 13.9 0.00 0.15 0.14 68 1009.7
20260508181544 61 203 6.1 13.9 0.00 0.15 0.14 67 1009.8
20260508181036 61 253 7.0 13.9 0.00 0.15 0.14 66 1009.9
20260508180539 62 231 7.8 15.6 0.00 0.15 0.14 66 1010.0
20260508180036 61 253 7.8 14.8 0.00 0.15 0.14 67 1010.0
20260508175533 61 268 8.7 16.5 0.00 0.15 0.14 65 1010.1
20260508175034 62 252 9.6 16.5 0.00 0.15 0.14 64 1010.1
20260508174537 62 205 8.7 14.8 0.00 0.15 0.14 66 1010.1
20260508174032 62 286 4.3 12.2 0.00 0.15 0.14 67 1010.2
20260508173533 62 189 3.5 7.0 0.00 0.15 0.14 68 1010.2
20260508173031 62 256 4.3 8.7 0.00 0.15 0.14 69 1010.3
20260508172532 62 203 3.5 8.7 0.00 0.15 0.14 70 1010.4
20260508172028 61 169 4.3 10.4 0.00 0.15 0.14 73 1010.4
20260508171527 61 187 2.6 10.4 0.00 0.15 0.14 75 1010.5
20260508171025 60 245 3.5 6.1 0.00 0.15 0.14 77 1010.5
20260508170525 59 173 0.0 6.1 0.00 0.15 0.14 74 1010.7
20260508170023 59 206 2.6 6.1 0.00 0.15 0.14 77 1010.8
20260508165522 58 188 2.6 7.0 0.00 0.15 0.14 77 1010.9
20260508165020 57 238 4.3 8.7 0.00 0.15 0.14 76 1011.1
20260508164519 57 209 6.1 8.7 0.00 0.15 0.14 76 1011.2
20260508164017 57 212 5.2 7.0 0.00 0.15 0.14 78 1011.3
20260508163517 57 180 1.7 7.0 0.00 0.15 0.14 80 1011.3
20260508163017 56 212 4.3 10.4 0.00 0.15 0.14 80 1011.4
20260508162516 56 211 6.1 10.4 0.00 0.15 0.14 80 1011.5
20260508162018 56 201 5.2 9.6 0.00 0.15 0.14 81 1011.7
20260508161525 56 197 2.6 7.8 0.00 0.15 0.14 83 1011.6
20260508161013 55 188 2.6 7.0 0.00 0.15 0.14 83 1011.6
20260508160511 55 211 2.6 7.0 0.00 0.15 0.14 83 1011.6
20260508160012 55 193 3.5 7.8 0.00 0.15 0.14 83 1011.7
20260508155511 54 216 5.2 13.0 0.00 0.15 0.14 82 1011.7
20260508155012 55 182 7.0 13.0 0.00 0.15 0.14 83 1011.9
20260508154511 55 199 4.3 13.9 0.00 0.15 0.14 83 1011.9
20260508154014 55 192 6.1 13.9 0.00 0.15 0.14 84 1011.8
20260508153511 55 211 3.5 9.6 0.00 0.15 0.14 84 1011.6
20260508153017 55 180 3.5 13.0 0.00 0.15 0.14 86 1011.7
20260508152508 55 167 6.1 13.0 0.00 0.15 0.14 87 1011.7
20260508152008 54 201 6.1 11.3 0.00 0.15 0.14 88 1011.7
20260508151506 54 181 5.2 10.4 0.00 0.15 0.14 89 1011.7
20260508151006 53 189 2.6 9.6 0.00 0.15 0.14 90 1011.7
20260508150503 53 202 3.5 10.4 0.00 0.15 0.14 91 1011.8
20260508150003 52 197 5.2 8.7 0.00 0.15 0.14 92 1011.8
20260508145501 52 177 2.6 7.0 0.01 0.15 0.14 92 1011.9
20260508145101 51 221 2.6 7.0 0.03 0.15 0.14 93 1012.0
20260508144558 51 189 1.7 6.1 0.04 0.15 0.14 93 1012.0
20260508144058 51 200 3.5 6.1 0.05 0.15 0.14 93 1012.1
20260508143558 50 184 0.9 5.2 0.06 0.15 0.14 93 1012.1
20260508143117 50 203 1.7 5.2 0.07 0.15 0.14 93 1012.2
20260508142557 50 196 2.6 6.1 0.08 0.15 0.14 93 1012.3
20260508142057 49 204 2.6 8.7 0.09 0.15 0.14 93 1012.3
20260508141604 49 187 4.3 8.7 0.09 0.15 0.14 92 1012.4
20260508141053 49 207 5.2 8.7 0.09 0.15 0.14 92 1012.5
20260508140553 49 207 5.2 8.7 0.09 0.15 0.14 92 1012.7
20260508140112 49 206 4.3 7.8 0.09 0.15 0.14 92 1012.7
20260508135554 49 205 0.9 5.2 0.08 0.14 0.13 92 1012.6
20260508135053 49 201 0.9 6.1 0.07 0.12 0.11 92 1012.5
20260508134554 49 222 4.3 6.1 0.06 0.11 0.10 92 1012.8
20260508134051 49 228 3.5 6.1 0.06 0.10 0.09 91 1012.9
20260508133552 49 216 2.6 5.2 0.06 0.09 0.08 91 1012.9
20260508133052 49 222 0.9 4.3 0.04 0.07 0.06 91 1012.9
20260508132552 49 248 2.6 4.3 0.05 0.07 0.06 91 1012.9
20260508132051 49 278 1.7 3.5 0.04 0.06 0.05 91 1012.8
20260508131550 49 272 0.0 3.5 0.04 0.06 0.05 91 1012.4
20260508131051 49 254 0.9 3.5 0.04 0.06 0.05 90 1012.3
20260508130549 49 204 1.7 3.5 0.04 0.06 0.05 90 1012.2
20260508130048 49 189 1.7 6.1 0.04 0.06 0.05 89 1012.1
20260508125548 50 199 2.6 7.0 0.04 0.06 0.05 89 1012.2
20260508125048 50 216 4.3 7.0 0.03 0.05 0.04 89 1012.3
20260508124548 50 204 2.6 6.1 0.03 0.05 0.04 88 1012.2
20260508124048 50 221 4.3 6.1 0.02 0.04 0.03 88 1012.4
20260508123548 50 213 3.5 7.8 0.01 0.03 0.02 87 1012.5
20260508123049 50 234 5.2 9.6 0.01 0.03 0.02 87 1012.4
20260508122547 50 195 6.1 9.6 0.00 0.02 0.01 86 1012.4
20260508122047 50 228 6.1 8.7 0.00 0.02 0.01 86 1012.4
20260508121548 51 248 6.1 8.7 0.00 0.02 0.01 85 1012.4
20260508121047 51 209 6.1 11.3 0.00 0.02 0.01 85 1012.2
20260508120545 51 226 5.2 11.3 0.00 0.02 0.01 84 1012.3
20260508120051 51 238 6.1 9.6 0.00 0.02 0.01 83 1012.3
20260508115548 51 214 5.2 9.6 0.00 0.02 0.01 83 1012.2
20260508115049 51 230 5.2 8.7 0.00 0.02 0.01 83 1012.1
20260508114549 51 244 4.3 8.7 0.00 0.02 0.01 82 1012.1
20260508114045 51 213 5.2 10.4 0.00 0.02 0.01 82 1012.1
20260508113544 51 239 7.0 10.4 0.00 0.02 0.01 82 1012.0
20260508113044 51 240 5.2 10.4 0.00 0.02 0.01 81 1012.0
20260508112546 51 244 4.3 12.2 0.00 0.02 0.01 81 1011.9
20260508112043 51 223 7.8 12.2 0.00 0.02 0.01 80 1011.8
20260508111544 51 222 7.0 10.4 0.00 0.02 0.01 80 1011.9
20260508111041 51 219 7.0 10.4 0.00 0.02 0.01 80 1011.8
20260508110541 51 232 5.2 10.4 0.00 0.02 0.01 80 1011.8
20260508110039 51 223 6.1 10.4 0.00 0.02 0.01 80 1011.8
20260508105540 51 229 6.1 11.3 0.00 0.02 0.01 80 1011.7
20260508105041 51 244 7.0 15.6 0.00 0.02 0.01 80 1011.8
20260508104539 51 204 6.1 15.6 0.00 0.02 0.01 80 1011.7
20260508104040 51 216 7.8 13.0 0.00 0.02 0.01 80 1011.8
20260508103538 51 253 5.2 10.4 0.00 0.02 0.01 80 1011.8
20260508103045 51 247 6.1 8.7 0.00 0.02 0.01 80 1011.7
20260508102537 51 235 6.1 8.7 0.00 0.02 0.01 80 1011.7
20260508102037 51 236 4.3 13.0 0.00 0.02 0.01 80 1011.7
20260508101537 51 218 6.1 13.0 0.00 0.02 0.01 80 1011.7
20260508101038 51 258 6.1 9.6 0.00 0.02 0.01 79 1011.7
20260508100536 51 226 5.2 10.4 0.00 0.02 0.01 79 1011.7
20260508100056 51 207 4.3 13.0 0.00 0.02 0.01 79 1011.7
20260508095536 51 251 6.1 13.0 0.00 0.02 0.01 78 1011.7
20260508095037 51 211 7.0 13.9 0.00 0.02 0.01 78 1011.6
20260508094541 51 220 7.8 15.6 0.00 0.02 0.01 78 1011.6
20260508094035 51 214 7.8 15.6 0.00 0.02 0.01 78 1011.7
20260508093537 51 243 6.1 15.6 0.00 0.02 0.01 78 1011.8
20260508093038 51 211 10.4 15.6 0.00 0.02 0.01 78 1011.8
20260508092534 51 231 8.7 18.2 0.00 0.02 0.01 79 1012.0
20260508092032 51 236 8.7 18.2 0.00 0.02 0.01 80 1012.0
20260508091533 51 219 9.6 13.0 0.00 0.02 0.01 81 1012.0
20260508091033 50 196 7.8 13.0 0.00 0.02 0.01 81 1011.9
20260508090531 50 211 7.8 13.0 0.00 0.02 0.01 82 1012.0
20260508090039 50 219 6.1 12.2 0.00 0.02 0.01 82 1012.1
20260508085528 50 220 5.2 9.6 0.00 0.02 0.01 82 1012.0
20260508085029 50 210 6.1 10.4 0.00 0.02 0.01 82 1011.9
20260508084528 50 214 6.1 10.4 0.00 0.02 0.01 82 1012.0
20260508084028 50 217 5.2 10.4 0.00 0.02 0.01 82 1011.8
20260508083528 49 245 5.2 10.4 0.01 0.02 0.01 82 1011.8
20260508083027 49 224 6.1 10.4 0.01 0.02 0.01 83 1011.7
20260508082526 49 224 5.2 10.4 0.01 0.02 0.01 83 1011.8
20260508082026 49 245 7.0 12.2 0.01 0.02 0.01 83 1011.8
20260508081524 49 207 6.1 9.6 0.01 0.02 0.01 84 1011.8
20260508081027 49 218 6.1 10.4 0.01 0.02 0.01 84 1011.9
20260508080522 48 207 5.2 10.4 0.01 0.02 0.01 85 1011.8
20260508080021 48 227 5.2 11.3 0.01 0.02 0.01 86 1011.8
20260508075520 48 230 7.0 11.3 0.01 0.02 0.01 87 1011.9
20260508075020 47 229 5.2 10.4 0.01 0.02 0.01 87 1011.9
20260508074518 47 217 6.1 10.4 0.01 0.02 0.01 88 1011.9
20260508074018 46 204 7.0 10.4 0.01 0.02 0.01 89 1011.9
20260508073516 46 210 5.2 7.8 0.00 0.01 0.00 90 1011.9
20260508073014 46 214 6.1 9.6 0.00 0.01 0.00 91 1012.1
20260508072516 45 216 5.2 8.7 0.00 0.01 0.00 91 1012.0
20260508072017 45 223 4.3 7.8 0.00 0.01 0.00 92 1012.0
20260508071514 45 215 5.2 7.8 0.00 0.01 0.00 92 1012.0
20260508071010 44 203 3.5 6.1 0.00 0.01 0.00 92 1012.0
20260508070513 44 205 1.7 6.1 0.00 0.01 0.00 91 1011.9
20260508070011 44 188 1.7 6.1 0.00 0.01 0.00 91 1011.9
20260508065510 44 193 0.9 2.6 0.00 0.01 0.00 91 1012.0
20260508065015 44 190 0.0 1.7 0.00 0.01 0.00 91 1012.1
20260508064510 44 187 0.9 1.7 0.00 0.01 0.00 91 1012.2
20260508064011 44 187 0.0 1.7 0.00 0.01 0.00 91 1012.1
20260508063508 44 195 0.0 2.6 0.00 0.01 0.00 91 1012.2
20260508063008 44 186 0.0 2.6 0.00 0.01 0.00 91 1012.1
20260508062507 45 192 0.9 3.5 0.00 0.01 0.00 91 1012.2
20260508062007 45 199 0.9 3.5 0.00 0.01 0.00 91 1012.2
20260508061508 45 187 0.9 4.3 0.00 0.01 0.00 91 1012.2
20260508061007 45 203 2.6 6.1 0.00 0.01 0.00 91 1012.2
20260508060505 45 180 0.9 5.2 0.00 0.01 0.00 91 1012.2
20260508060006 45 189 0.9 4.3 0.00 0.01 0.00 91 1012.3
20260508055504 45 201 0.9 4.3 0.00 0.01 0.00 91 1012.4
20260508055006 45 192 0.9 5.2 0.00 0.01 0.00 91 1012.4
20260508054514 45 197 0.9 5.2 0.00 0.01 0.00 91 1012.4
20260508054003 45 191 1.7 4.3 0.00 0.01 0.00 91 1012.4
20260508053502 45 200 1.7 5.2 0.00 0.01 0.00 92 1012.4
20260508053002 45 197 1.7 5.2 0.00 0.01 0.00 92 1012.4
20260508052504 45 201 2.6 3.5 0.00 0.01 0.00 92 1012.5
20260508052002 44 202 1.7 3.5 0.00 0.01 0.00 92 1012.6
20260508051501 44 197 1.7 3.5 0.00 0.01 0.00 92 1012.6
20260508051001 44 200 1.7 3.5 0.00 0.01 0.00 92 1012.6
20260508050600 44 195 2.6 3.5 0.00 0.01 0.00 92 1012.6
20260508045559 45 178 0.0 3.5 0.00 0.01 0.00 92 1012.5
20260508045002 44 184 1.7 3.5 0.00 0.01 0.00 93 1012.5
20260508044559 44 191 0.9 3.5 0.00 0.01 0.00 92 1012.5
20260508044101 44 181 0.0 2.6 0.00 0.01 0.00 92 1012.5